GW1748 Weather Reports


time (UTC)temp
F
wind
direction
speed
knots
gust
knots
rain 1hr
in
rain 24hr
in
rain mn
in
humidity
%
barometer
mb
20260504201542 73 259 2.6 15.6 0.00 0.00 0.00 37 1004.9
20260504200042 72 217 7.0 17.4 0.00 0.00 0.00 35 1005.1
20260504194546 71 238 4.3 13.0 0.00 0.00 0.00 37 1004.9
20260504193036 69 186 3.5 13.0 0.00 0.00 0.00 38 1004.9
20260504191544 70 246 5.2 11.3 0.00 0.00 0.00 37 1005.0
20260504190050 71 340 4.3 17.4 0.00 0.00 0.00 37 1005.2
20260504184558 71 202 7.0 13.9 0.00 0.00 0.00 38 1005.2
20260504183040 70 209 3.5 11.3 0.00 0.00 0.00 38 1005.2
20260504181535 69 233 2.6 13.0 0.00 0.00 0.00 37 1005.3
20260504180045 71 234 4.3 16.5 0.00 0.00 0.00 36 1005.3
20260504174542 72 261 3.5 13.0 0.00 0.00 0.00 34 1005.2
20260504173041 71 236 4.3 15.6 0.00 0.00 0.00 37 1005.5
20260504171546 69 244 7.0 18.2 0.00 0.00 0.00 37 1005.6
20260504081540 38 0 0.0 0.0 0.00 0.02 0.00 89 1008.7
20260504044543 32 0 0.0 0.0 0.00 0.02 0.00 91 1008.8
20260504043040 32 0 0.0 0.0 0.00 0.02 0.00 91 1008.8
20260504041542 32 0 0.0 0.0 0.00 0.02 0.00 91 1008.7
20260504040038 32 0 0.0 0.9 0.00 0.02 0.00 90 1008.7
20260504034600 32 0 0.0 0.0 0.00 0.02 0.02 90 1008.7
20260504033042 32 0 0.0 0.0 0.00 0.02 0.02 89 1008.7
20260504031542 33 0 0.0 0.0 0.00 0.02 0.02 89 1008.6
20260504030043 33 0 0.0 0.0 0.00 0.02 0.02 88 1008.5
20260504024536 34 0 0.0 0.0 0.00 0.06 0.02 87 1008.6
20260504023036 34 0 0.0 0.0 0.00 0.06 0.02 87 1008.6
20260504021543 35 0 0.0 0.0 0.00 0.06 0.02 85 1008.5
20260504020041 35 0 0.0 0.0 0.00 0.06 0.02 84 1008.5
20260504014553 36 0 0.0 0.0 0.00 0.06 0.02 82 1008.5
20260504013042 37 0 0.0 0.0 0.00 0.06 0.02 81 1008.4
20260504011542 38 0 0.0 0.0 0.00 0.06 0.02 79 1008.2
20260504010045 39 0 0.0 0.0 0.00 0.06 0.02 77 1008.1
20260504004543 41 0 0.0 0.0 0.00 0.06 0.02 74 1007.9
20260504003049 42 0 0.0 0.0 0.00 0.06 0.02 70 1007.8
20260504001542 44 0 0.0 0.0 0.00 0.06 0.02 70 1007.6
20260504000041 46 0 0.0 0.0 0.00 0.06 0.02 61 1007.5
20260503234548 48 0 0.0 0.9 0.00 0.07 0.02 55 1007.3
20260503233044 49 0 0.0 4.3 0.00 0.07 0.02 51 1007.1
20260503231542 49 250 1.7 7.0 0.00 0.07 0.02 50 1007.1
20260503230043 50 288 3.5 13.0 0.00 0.07 0.02 49 1006.9
20260503224540 50 251 5.2 11.3 0.00 0.07 0.02 48 1006.7
20260503223046 50 323 2.6 10.4 0.00 0.07 0.02 49 1006.6
20260503221544 51 328 0.9 9.6 0.00 0.07 0.02 47 1006.6
20260503220049 51 355 4.3 13.9 0.00 0.07 0.02 44 1006.5
20260503214540 51 249 4.3 12.2 0.00 0.20 0.02 44 1006.2
20260503213042 51 331 3.5 13.0 0.00 0.20 0.02 45 1006.0
20260503211547 52 346 5.2 13.0 0.00 0.20 0.02 43 1005.9
20260503210049 52 336 6.1 14.8 0.00 0.20 0.02 45 1005.9
20260503204542 51 346 5.2 13.9 0.00 0.21 0.02 46 1005.6
20260503203041 52 290 5.2 12.2 0.00 0.21 0.02 43 1005.5